Regional Weather Roundup
Issued by NWS State College, PA

Home | Current Version | Previous Version | Text Only | Print | Product List | Glossary Off
Versions: 1 2 3 4 5 6 7 8 9 10 11 12 13 14 15 16 17 18 19 20 21 22 23 24 25 26 27 28 29 30 31 32 33 34 35 36 37 38 39 40 41 42 43 44 45 46 47 48 49 50

000
ASUS41 KCTP 260010
RWRCTP

REGIONAL WEATHER ROUNDUP
NATIONAL WEATHER SERVICE STATE COLLEGE PA
800 PM EDT SAT APR 25 2015

Note: "fair" indicates few or no clouds below 12,000 feet with no
significant weather and/or obstructions to visibility.

* = STATION THAT DOES NOT REPORT PRECIPITATION /E.G. RAIN...SNOW...ETC/
    THUNDER OR FOG.

PAZ002>004-007>009-013>016-020>023-029>032-260100-
WESTERN PENNSYLVANIA

CITY           SKY/WX    TMP DP  RH WIND       PRES   REMARKS
ERIE           PTCLDY    43  24  47 NE13      29.78S
MEADVILLE      PTCLDY    45  24  43 N10       29.73R
FRANKLIN*      PTCLDY    48  16  27 CALM      29.72S
NEW CASTLE     FAIR      52  24  33 CALM      29.72S
BEAVER COUNTY  NOT AVBL
BUTLER*        CLOUDY    50  19  29 CALM      29.72R
PITTSBURGH INT CLOUDY    52  15  23 N6        29.70R
PITTSBURGH     CLOUDY    50  21  32 N6        29.68R
INDIANA*       CLEAR     52  19  28 E5        29.71S
LATROBE        CLOUDY    50  27  40 CALM      29.69S
WASHINGTON CO* CLOUDY    48  28  46 NW6       29.72R
$$

PAZ004>006-010>012-017>019-024>028-033>037-041-042-045-046-049>053-260100-
CENTRAL PENNSYLVANIA

CITY           SKY/WX    TMP DP  RH WIND       PRES   REMARKS
BRADFORD       PTCLDY    46  21  37 N6        29.71S
DUBOIS         MOCLDY    51  16  24 CALM      29.69S
CLEARFIELD     MOCLDY    50  17  27 E3        29.71R
JOHNSTOWN      CLOUDY    46  21  37 E5        29.66S
ALTOONA        CLOUDY    49  23  36 CALM      29.69S
STATE COLLEGE  CLEAR     50  19  29 CALM      29.71R
WILLIAMSPORT   PTCLDY    53  25  33 W3        29.70S
SELINSGROVE    MOCLDY    50  30  46 CALM      29.72S
FT INDIANTOWN  CLOUDY    52  23  32 VRB3      29.71S
CAPITAL CITY   CLOUDY    53  19  26 CALM      29.72S
HARRISBURG     CLOUDY    52  27  38 SW8       29.71F
YORK           CLOUDY    48  32  53 CALM      29.72F
$$

PAZ038>040-043-044-047-048-054-055-060>062-067>071-260100-
EASTERN PENNSYLVANIA

CITY           SKY/WX    TMP DP  RH WIND       PRES   REMARKS
SCRANTON       PTCLDY    51  23  33 N10       29.71R
MOUNT POCONO   CLEAR     46  21  37 N5        29.70R
ALLENTOWN      PTCLDY    53  23  31 CALM      29.70S
QUAKERTOWN*    PTCLDY    54  27  35 CALM      29.71F
READING        MOCLDY    53  24  32 SW7       29.70F
LANCASTER      CLOUDY    50  24  36 SW5       29.71F
COATESVILLE    CLOUDY    50  23  34 CALM      29.72F
POTTSTOWN      MOCLDY    52  25  35 SW6       29.73S
BLUE BELL      MOCLDY    54  30  40 CALM      29.71F
DOYLESTOWN     PTCLDY    52  23  32 SW5       29.70S
WILLOW GROVE   NOT AVBL
NORTH PHILA    MOCLDY    55  23  28 VRB5      29.73S
PHILADELPHIA   CLOUDY    53  27  36 S12       29.74S
$$


USA.gov is the U.S. government's official web portal to all federal, state and local government web resources and services.